Weather History for KGLS - May, 2014

Change the Weather History Date:

Tuesday, May 13, 2014

  Actual Average Record
Temperature  
Mean Temperature 72 °F 77 °F  
Max Temperature 77 °F 82 °F 93 °F (2011)
Min Temperature 66 °F 72 °F 60 °F (1871)
Degree Days  
Heating Degree Days 0 0  
Month to date heating degree days 0 0  
Since 1 July heating degree days 1425 1009  
Cooling Degree Days 7 12  
Month to date cooling degree days 117 138  
Year to date cooling degree days 305 381  
Growing Degree Days 22 (Base 50)    
Moisture  
Dew Point 70 °F    
Average Humidity 87    
Maximum Humidity 100    
Minimum Humidity 74    
Precipitation  
Precipitation 0.40 in 0.09 in 3.77 in (1969)
Month to date precipitation 0.40 1.52  
Year to date precipitation 5.37 14.50  
Snow  
Snow 0.00 in - - ()
Month to date snowfall 0.0  
Since 1 July snowfall T  
Snow Depth 0.00 in    
Sea Level Pressure  
Sea Level Pressure 29.99 in    
Wind  
Wind Speed 17 mph (NNE)    
Max Wind Speed 36 mph    
Max Gust Speed 42 mph    
Visibility 9 miles    
Events Rain , Thunderstorm    
T = Trace of Precipitation, MM = Missing Value Source: NWS Daily Summary

Daily Weather History Graph

Daily Weather History Graph

Search for Another Location

Airport or City:

Trip Planner

Search our weather history database for the weather conditions in past years. The results will help you decide how hot, cold, wet, or windy it might be!

Date:

Astronomy

May. 13, 2014 Rise Set
Actual Time 6:28 AM CDT 8:03 PM CDT
Civil Twilight 6:02 AM CDT 8:29 PM CDT
Nautical Twilight 5:31 AM CDT 9:00 PM CDT
Astronomical Twilight 4:59 AM CDT 9:32 PM CDT
Moon 7:10 PM CDT (5/13) 5:38 AM CDT (5/13)
Length of Visible Light 14h 26m
Length of Day
13h 34m
Waxing Gibbous, 99% of the Moon is Illuminated
May 13
Waxing Gibbous
May 14
Full
May 21
Last Quarter
May 28
New
Jun 5
First Quarter

Hourly Weather History & Observations

Time (CDT) Temp. Dew Point Humidity Pressure Visibility Wind Dir Wind Speed Gust Speed Precip Events Conditions
12:52 AM 75.9 °F 75.0 °F 97% 29.93 in 9.0 mi SSE 17.3 mph - N/A   Overcast
1:52 AM 75.9 °F 75.0 °F 97% 29.93 in 9.0 mi SE 15.0 mph - N/A   Overcast
2:32 AM 75.9 °F 73.9 °F 94% 29.92 in 9.0 mi SSE 15.0 mph - N/A   Overcast
2:52 AM 75.9 °F 75.0 °F 97% 29.92 in 9.0 mi SSE 12.7 mph - N/A   Overcast
3:24 AM 75.0 °F 73.9 °F 96% 29.92 in 9.0 mi SE 11.5 mph - N/A   Overcast
3:45 AM 75.9 °F 75.0 °F 97% 29.93 in 9.0 mi SE 9.2 mph - N/A   Overcast
3:52 AM 75.2 °F 73.4 °F 94% 29.93 in 9.0 mi SE 9.2 mph - N/A   Overcast
4:04 AM 77.0 °F 73.9 °F 90% 29.93 in 9.0 mi SE 9.2 mph - N/A   Overcast
4:34 AM 75.0 °F 75.0 °F 100% 29.94 in 8.0 mi SE 6.9 mph - N/A   Overcast
4:48 AM 75.2 °F 73.4 °F 94% 29.94 in 9.0 mi ESE 5.8 mph - N/A   Overcast
4:52 AM 75.0 °F 73.9 °F 96% 29.94 in 9.0 mi SE 8.1 mph - N/A   Overcast
5:13 AM 75.9 °F 75.0 °F 97% 29.96 in 9.0 mi South 3.5 mph - N/A   Overcast
5:32 AM 75.9 °F 73.9 °F 94% 29.97 in 8.0 mi SSW 4.6 mph - 0.00 in Rain , Thunderstorm Light Rain
5:44 AM 75.9 °F 73.9 °F 94% 29.98 in 6.0 mi WSW 4.6 mph - 0.00 in Rain Light Rain
5:52 AM 71.1 °F 69.1 °F 93% 29.99 in 8.0 mi NW 16.1 mph - 0.00 in Rain Light Rain
5:59 AM 71.1 °F 69.1 °F 93% 29.99 in 10.0 mi NNW 16.1 mph - 0.00 in Rain , Thunderstorm Light Rain
6:14 AM 70.0 °F 68.0 °F 93% 30.00 in 10.0 mi North 25.3 mph 40.3 mph 0.00 in Rain Light Rain
6:35 AM 69.1 °F 68.0 °F 96% 30.00 in 8.0 mi North 29.9 mph 38.0 mph 0.00 in Rain , Thunderstorm Light Rain
6:49 AM 69.8 °F 68.0 °F 94% 30.02 in 10.0 mi North 32.2 mph 40.3 mph 0.00 in Rain , Thunderstorm Light Rain
6:52 AM 69.1 °F 68.0 °F 96% 30.03 in 10.0 mi North 25.3 mph 40.3 mph 0.00 in Rain , Thunderstorm Light Rain
7:00 AM 69.1 °F 68.0 °F 96% 30.03 in 10.0 mi North 28.8 mph 41.4 mph 0.00 in Rain Light Rain
7:52 AM 68.0 °F 66.2 °F 94% 30.07 in 3.0 mi North 27.6 mph 40.3 mph N/A Rain Heavy Rain
8:52 AM 69.1 °F 66.9 °F 93% 30.05 in 10.0 mi North 21.9 mph 28.8 mph N/A Rain Light Rain
10:52 AM 73.4 °F 66.2 °F 78% 29.99 in 10.0 mi NE 13.8 mph - N/A   Clear
11:52 AM 73.9 °F 66.9 °F 79% 30.01 in 10.0 mi ENE 15.0 mph - N/A   Mostly Cloudy
12:52 PM 75.0 °F 68.0 °F 79% 30.03 in 10.0 mi North 9.2 mph - 0.00 in Rain Light Rain
1:52 PM 75.0 °F 68.0 °F 79% 30.01 in 10.0 mi North 13.8 mph - 0.00 in   Clear
2:52 PM 73.9 °F 66.9 °F 79% 30.00 in 10.0 mi North 11.5 mph - N/A   Mostly Cloudy
3:52 PM 75.0 °F 66.9 °F 76% 29.99 in 10.0 mi North 11.5 mph - N/A   Scattered Clouds
4:52 PM 75.9 °F 68.0 °F 76% 29.98 in 10.0 mi NNE 13.8 mph - N/A   Mostly Cloudy
5:52 PM 75.0 °F 69.1 °F 82% 29.98 in 10.0 mi North 11.5 mph - N/A   Overcast
6:33 PM 73.0 °F 68.0 °F 84% 30.00 in 10.0 mi North 20.7 mph - N/A   Overcast
6:52 PM 71.1 °F 66.0 °F 84% 30.00 in 10.0 mi North 19.6 mph - N/A   Overcast
7:52 PM 69.1 °F 66.0 °F 90% 30.00 in 10.0 mi North 24.2 mph 31.1 mph N/A   Overcast
8:09 PM 69.1 °F 66.0 °F 90% 30.01 in 10.0 mi North 20.7 mph - N/A   Overcast
8:52 PM 68.0 °F 66.0 °F 93% 30.04 in 10.0 mi NNW 20.7 mph - 0.00 in   Overcast
9:02 PM 66.9 °F 66.0 °F 97% 30.04 in 10.0 mi NNW 21.9 mph - N/A   Overcast
9:29 PM 66.9 °F 66.0 °F 97% 30.05 in 10.0 mi NNW 23.0 mph 28.8 mph N/A   Overcast
9:52 PM 66.9 °F 66.0 °F 97% 30.07 in 10.0 mi NNW 23.0 mph - N/A   Overcast
10:52 PM 66.9 °F 64.9 °F 93% 30.08 in 10.0 mi North 20.7 mph 27.6 mph N/A   Overcast
11:52 PM 66.9 °F 64.0 °F 90% 30.10 in 10.0 mi North 20.7 mph - N/A   Overcast